This demonstration page uses our WeatherBlox Daily Observations layout. Learn more.

Left ArrowRight Arrow

44.8408, -93.29828

Hourly Observations for March 2, 2016

Temp ( °F °C ) Dew Point ( °F °C ) Humidity (%) Winds ( mph kmh ) Pressure ( in mb ) Visibility ( mi km ) Precip ( " mm )
12:53 am 00:53 Partly Cloudy 17 -8.3 9 -12.8 70 70 WSW 5 7 30.14 1021 10 16 0.00 0.00
1:53 am 01:53 Mostly Cloudy 17 -8.3 9 -12.8 70 70 WSW 7 11 30.14 1021 10 16 0.00 0.00
2:53 am 02:53 Mostly Cloudy 16 -8.9 8 -13.3 71 71 SW 3 6 30.12 1020 10 16 0.00 0.00
3:53 am 03:53 Mostly Clear 15 -9.4 8 -13.3 74 74 Calm 30.11 1020 10 16 0.00 0.00
4:53 am 04:53 Partly Cloudy 14 -10 7 -13.9 73 73 SW 6 9 30.12 1020 10 16 0.00 0.00
5:53 am 05:53 Cloudy 14 -10 7 -13.9 73 73 SW 7 11 30.12 1020 10 16 0.00 0.00
6:53 am 06:53 Mostly Cloudy 14 -10 7 -13.9 73 73 SSW 7 11 30.13 1020 10 16 0.00 0.00
7:53 am 07:53 Mostly Sunny 14 -10 7 -13.9 73 73 S 3 6 30.13 1020 10 16 0.00 0.00
8:53 am 08:53 Mostly Sunny 16 -8.9 8 -13.3 71 71 SSW 6 9 30.14 1021 10 16 0.00 0.00
9:53 am 09:53 Mostly Sunny 21 -6.1 5 -15 50 50 SSE 8 13 30.11 1020 10 16 0.00 0.00
10:53 am 10:53 Mostly Cloudy 25 -3.9 3 -16.1 39 39 S 8 13 30.12 1020 10 16 0.00 0.00
11:53 am 11:53 Partly Cloudy 26 -3.3 5 -15 40 40 S 6 9 30.10 1019 10 16 0.00 0.00
12:53 pm 12:53 Mostly Sunny 29 -1.7 6 -14.4 38 38 SSE 7 11 30.06 1018 10 16 0.00 0.00
1:53 pm 13:53 Partly Cloudy 30 -1.1 7 -13.9 38 38 SE 7 11 30.04 1017 10 16 0.00 0.00
2:53 pm 14:53 Partly Cloudy 30 -1.1 8 -13.3 39 39 SE 6 9 30.03 1017 10 16 0.00 0.00
3:53 pm 15:53 Cloudy 30 -1.1 10 -12.2 43 43 SE 9 15 30.02 1017 10 16 0.00 0.00
4:53 pm 16:53 Cloudy 30 -1.1 10 -12.2 43 43 SSE 8 13 30.04 1017 10 16 0.00 0.00
5:53 pm 17:53 Mostly Cloudy 28 -2.2 10 -12.2 47 47 SE 7 11 30.04 1017 10 16 0.00 0.00
6:53 pm 18:53 Cloudy 27 -2.8 10 -12.2 49 49 SE 9 15 30.07 1018 10 16 0.00 0.00
7:53 pm 19:53 Cloudy 27 -2.8 8 -13.3 45 45 SE 7 11 30.08 1019 10 16 0.00 0.00
8:53 pm 20:53 Cloudy 27 -2.8 8 -13.3 45 45 SSE 7 11 30.10 1019 10 16 0.00 0.00
9:53 pm 21:53 Cloudy 27 -2.8 8 -13.3 45 45 SE 6 9 30.10 1019 10 16 0.00 0.00
10:53 pm 22:53 Cloudy 26 -3.3 8 -13.3 46 46 SE 8 13 30.09 1019 10 16 0.00 0.00
11:53 pm 23:53 Cloudy 26 -3.3 8 -13.3 46 46 SE 6 9 30.09 1019 10 16 0.00 0.00

Powered by AerisWeather